Kosmos-1563

operational
NORAD ID: 15002 Int'l Des: 1984-052 Owner: GUKOS Country: SU
LEOCIRCULAR

Kosmos-1563について

説明を読み込み中...

リアルタイム位置

3D地球を読み込み中...

次回通過

高度履歴

Altitude vs Time

uPlot chart will show altitude changes over time

軌道要素

1 15002U 84052E 26062.61931781 -.00000026 00000-0 -62393-4 0 9996
2 15002 74.0142 25.2569 0024850 191.7589 280.7596 12.51838350640997
Epoch: Mar 3, 2026 • Age: 40 hours

現在のステータス

高度 1443.6 km
速度 7.15 km/s
衛星直下点 -16.78°S, 162.64°E
打ち上げ日 May 28, 1984
運用期間 41.7 years
タイプ other

技術仕様

分類 Payload
質量 60.00 kg
乾燥質量 60.00 kg
総質量 60.00 kg
長さ 0.80 m
直径 0.80 m
スパン 0.80 m
形状 Poly
製造者 NPOPM
バスタイプ Strela-1 11F625
フェーズステータス In Orbit
所有者/国 GUKOS/SU

大規模コンステレーション

Loading constellations...